| time (UTC) | temp F | wind direction | speed MPH | gust MPH | rain 1hr in | rain 24hr in | rain mn in | humidity % | barometer mb |
| 20260508164117 | 88 | 313 | 3.0 | 8.0 | 0.00 | 0.00 | 0.00 | 62 | 1013.7 |
| 20260508163636 | 87 | 289 | 1.0 | 2.0 | 0.00 | 0.00 | 0.00 | 62 | 1013.8 |
| 20260508163135 | 87 | 351 | 3.0 | 7.0 | 0.00 | 0.00 | 0.00 | 63 | 1013.9 |
| 20260508162634 | 87 | 43 | 2.0 | 6.0 | 0.00 | 0.00 | 0.00 | 64 | 1013.9 |
| 20260508162132 | 87 | 284 | 3.0 | 4.0 | 0.00 | 0.00 | 0.00 | 63 | 1014.0 |
| 20260508161631 | 86 | 330 | 5.0 | 9.0 | 0.00 | 0.00 | 0.00 | 62 | 1014.0 |
| 20260508161130 | 86 | 298 | 3.0 | 6.0 | 0.00 | 0.00 | 0.00 | 65 | 1014.0 |
| 20260508160628 | 86 | 79 | 1.0 | 6.0 | 0.00 | 0.00 | 0.00 | 67 | 1014.1 |
| 20260508160147 | 86 | 54 | 2.0 | 6.0 | 0.00 | 0.00 | 0.00 | 65 | 1014.2 |
| 20260508155626 | 86 | 0.0 | 0.0 | 0.00 | 0.00 | 0.00 | 68 | 1014.2 | |
| 20260508155125 | 85 | 0.0 | 0.0 | 0.00 | 0.00 | 0.00 | 65 | 1014.5 | |
| 20260508154623 | 85 | 292 | 1.0 | 6.0 | 0.00 | 0.00 | 0.00 | 67 | 1014.4 |
| 20260508154122 | 86 | 32 | 1.0 | 4.0 | 0.00 | 0.00 | 0.00 | 68 | 1014.5 |
| 20260508153701 | 86 | 0.0 | 0.0 | 0.00 | 0.00 | 0.00 | 70 | 1014.6 | |
| 20260508153119 | 85 | 39 | 2.0 | 4.0 | 0.00 | 0.00 | 0.00 | 70 | 1014.6 |
| 20260508152618 | 85 | 0.0 | 0.0 | 0.00 | 0.00 | 0.00 | 69 | 1014.6 | |
| 20260508152117 | 85 | 0.0 | 0.0 | 0.00 | 0.00 | 0.00 | 71 | 1014.5 | |
| 20260508151615 | 84 | 319 | 3.0 | 7.0 | 0.00 | 0.00 | 0.00 | 73 | 1014.7 |
| 20260508151134 | 84 | 300 | 0.0 | 2.0 | 0.00 | 0.00 | 0.00 | 72 | 1014.7 |
| 20260508150633 | 83 | 305 | 3.0 | 6.0 | 0.00 | 0.00 | 0.00 | 72 | 1014.7 |
| 20260508150132 | 83 | 327 | 0.0 | 2.0 | 0.00 | 0.00 | 0.00 | 73 | 1014.5 |
| 20260508145650 | 83 | 268 | 2.0 | 4.0 | 0.00 | 0.00 | 0.00 | 73 | 1014.6 |
| 20260508145129 | 84 | 275 | 1.0 | 4.0 | 0.00 | 0.00 | 0.00 | 72 | 1014.6 |
| 20260508144628 | 83 | 0.0 | 0.0 | 0.00 | 0.00 | 0.00 | 75 | 1014.5 | |
| 20260508144127 | 83 | 323 | 0.0 | 1.0 | 0.00 | 0.00 | 0.00 | 75 | 1014.7 |
| 20260508143625 | 83 | 258 | 2.0 | 6.0 | 0.00 | 0.00 | 0.00 | 74 | 1014.5 |
| 20260508143124 | 82 | 314 | 1.0 | 4.0 | 0.00 | 0.00 | 0.00 | 77 | 1014.5 |
| 20260508142623 | 82 | 0.0 | 0.0 | 0.00 | 0.00 | 0.00 | 78 | 1014.6 | |
| 20260508142122 | 82 | 0.0 | 0.0 | 0.00 | 0.00 | 0.00 | 78 | 1014.7 | |
| 20260508141620 | 82 | 287 | 1.0 | 6.0 | 0.00 | 0.00 | 0.00 | 79 | 1014.5 |
| 20260508141119 | 82 | 262 | 0.0 | 3.0 | 0.00 | 0.00 | 0.00 | 79 | 1014.5 |
| 20260508140618 | 82 | 0.0 | 0.0 | 0.00 | 0.00 | 0.00 | 80 | 1014.7 | |
| 20260508140117 | 81 | 0.0 | 0.0 | 0.00 | 0.00 | 0.00 | 81 | 1014.8 | |
| 20260508135635 | 81 | 279 | 1.0 | 2.0 | 0.00 | 0.00 | 0.00 | 81 | 1014.7 |
| 20260508135134 | 81 | 291 | 1.0 | 4.0 | 0.00 | 0.00 | 0.00 | 82 | 1014.7 |
| 20260508134653 | 81 | 0.0 | 0.0 | 0.00 | 0.00 | 0.00 | 83 | 1014.7 | |
| 20260508134151 | 81 | 0.0 | 0.0 | 0.00 | 0.00 | 0.00 | 82 | 1014.6 | |
| 20260508133650 | 81 | 0.0 | 0.0 | 0.00 | 0.00 | 0.00 | 84 | 1014.6 | |
| 20260508133149 | 80 | 0.0 | 0.0 | 0.00 | 0.00 | 0.00 | 84 | 1014.7 | |
| 20260508132628 | 80 | 269 | 0.0 | 2.0 | 0.00 | 0.00 | 0.00 | 85 | 1014.7 |
| 20260508132146 | 80 | 0.0 | 0.0 | 0.00 | 0.00 | 0.00 | 86 | 1014.6 | |
| 20260508131625 | 80 | 0.0 | 0.0 | 0.00 | 0.00 | 0.00 | 87 | 1014.6 | |
| 20260508131124 | 80 | 0.0 | 0.0 | 0.00 | 0.00 | 0.00 | 88 | 1014.5 | |
| 20260508130622 | 79 | 0.0 | 0.0 | 0.00 | 0.00 | 0.00 | 89 | 1014.6 | |
| 20260508130121 | 79 | 0.0 | 0.0 | 0.00 | 0.00 | 0.00 | 90 | 1014.4 | |
| 20260508125620 | 78 | 0.0 | 0.0 | 0.00 | 0.00 | 0.00 | 90 | 1014.5 | |
| 20260508125118 | 78 | 0.0 | 0.0 | 0.00 | 0.00 | 0.00 | 90 | 1014.4 | |
| 20260508124617 | 78 | 0.0 | 0.0 | 0.00 | 0.00 | 0.00 | 91 | 1014.5 | |
| 20260508124116 | 78 | 307 | 2.0 | 3.0 | 0.00 | 0.00 | 0.00 | 91 | 1014.5 |
| 20260508123635 | 78 | 0.0 | 0.0 | 0.00 | 0.00 | 0.00 | 92 | 1014.4 | |
| 20260508123133 | 77 | 0.0 | 0.0 | 0.00 | 0.00 | 0.00 | 92 | 1014.2 | |
| 20260508122632 | 77 | 0.0 | 0.0 | 0.00 | 0.00 | 0.00 | 92 | 1014.4 | |
| 20260508122131 | 77 | 0.0 | 0.0 | 0.00 | 0.00 | 0.00 | 92 | 1014.2 | |
| 20260508121629 | 76 | 266 | 0.0 | 1.0 | 0.00 | 0.00 | 0.00 | 92 | 1014.1 |
| 20260508121128 | 76 | 0.0 | 0.0 | 0.00 | 0.00 | 0.00 | 92 | 1014.1 | |
| 20260508120626 | 76 | 0.0 | 0.0 | 0.00 | 0.00 | 0.00 | 93 | 1014.0 | |
| 20260508120145 | 76 | 0.0 | 0.0 | 0.00 | 0.00 | 0.00 | 93 | 1014.1 | |
| 20260508115624 | 76 | 0.0 | 0.0 | 0.00 | 0.00 | 0.00 | 94 | 1013.9 | |
| 20260508115122 | 75 | 0.0 | 0.0 | 0.00 | 0.00 | 0.00 | 95 | 1014.1 | |
| 20260508114621 | 74 | 0.0 | 0.0 | 0.00 | 0.00 | 0.00 | 95 | 1013.9 | |
| 20260508114120 | 74 | 0.0 | 0.0 | 0.00 | 0.00 | 0.00 | 94 | 1013.7 | |
| 20260508113619 | 74 | 0.0 | 0.0 | 0.00 | 0.00 | 0.00 | 94 | 1013.8 | |
| 20260508113118 | 73 | 0.0 | 0.0 | 0.00 | 0.00 | 0.00 | 94 | 1013.6 | |
| 20260508112616 | 73 | 0.0 | 0.0 | 0.00 | 0.00 | 0.00 | 94 | 1013.6 | |
| 20260508112134 | 73 | 0.0 | 0.0 | 0.00 | 0.00 | 0.00 | 94 | 1013.3 | |
| 20260508111633 | 72 | 0.0 | 0.0 | 0.00 | 0.00 | 0.00 | 94 | 1013.4 | |
| 20260508111132 | 72 | 0.0 | 0.0 | 0.00 | 0.00 | 0.00 | 94 | 1013.2 | |
| 20260508110630 | 72 | 0.0 | 0.0 | 0.00 | 0.00 | 0.00 | 94 | 1013.1 | |
| 20260508110129 | 72 | 0.0 | 0.0 | 0.00 | 0.00 | 0.00 | 93 | 1013.1 | |
| 20260508105628 | 72 | 0.0 | 0.0 | 0.00 | 0.00 | 0.00 | 94 | 1012.9 | |
| 20260508105126 | 72 | 0.0 | 0.0 | 0.00 | 0.00 | 0.00 | 94 | 1012.8 | |
| 20260508104625 | 72 | 0.0 | 0.0 | 0.00 | 0.00 | 0.00 | 94 | 1012.9 | |
| 20260508104124 | 72 | 0.0 | 0.0 | 0.00 | 0.00 | 0.00 | 94 | 1012.9 | |
| 20260508103622 | 72 | 0.0 | 0.0 | 0.00 | 0.00 | 0.00 | 93 | 1012.9 | |
| 20260508103121 | 72 | 0.0 | 0.0 | 0.00 | 0.00 | 0.00 | 93 | 1013.0 | |
| 20260508102620 | 72 | 0.0 | 0.0 | 0.00 | 0.00 | 0.00 | 93 | 1012.8 | |
| 20260508102118 | 72 | 0.0 | 0.0 | 0.00 | 0.00 | 0.00 | 93 | 1012.7 | |
| 20260508101617 | 72 | 0.0 | 0.0 | 0.00 | 0.00 | 0.00 | 93 | 1012.6 | |
| 20260508101116 | 72 | 0.0 | 0.0 | 0.00 | 0.00 | 0.00 | 93 | 1012.5 | |
| 20260508100634 | 72 | 0.0 | 0.0 | 0.00 | 0.00 | 0.00 | 93 | 1012.6 | |
| 20260508100133 | 72 | 0.0 | 0.0 | 0.00 | 0.00 | 0.00 | 93 | 1012.6 | |
| 20260508095652 | 72 | 0.0 | 0.0 | 0.00 | 0.00 | 0.00 | 93 | 1012.5 | |
| 20260508095131 | 72 | 0.0 | 0.0 | 0.00 | 0.00 | 0.00 | 93 | 1012.3 | |
| 20260508094629 | 72 | 0.0 | 0.0 | 0.00 | 0.00 | 0.00 | 93 | 1012.3 | |
| 20260508094128 | 72 | 0.0 | 0.0 | 0.00 | 0.00 | 0.00 | 93 | 1012.3 | |
| 20260508093626 | 72 | 0.0 | 0.0 | 0.00 | 0.00 | 0.00 | 93 | 1012.2 | |
| 20260508093125 | 72 | 0.0 | 0.0 | 0.00 | 0.00 | 0.00 | 93 | 1012.4 | |
| 20260508092624 | 72 | 0.0 | 0.0 | 0.00 | 0.00 | 0.00 | 93 | 1012.5 | |
| 20260508092122 | 72 | 0.0 | 0.0 | 0.00 | 0.00 | 0.00 | 93 | 1012.3 | |
| 20260508091621 | 72 | 0.0 | 0.0 | 0.00 | 0.00 | 0.00 | 93 | 1012.2 | |
| 20260508091120 | 72 | 0.0 | 0.0 | 0.00 | 0.00 | 0.00 | 93 | 1012.4 | |
| 20260508090618 | 72 | 0.0 | 0.0 | 0.00 | 0.00 | 0.00 | 93 | 1012.4 | |
| 20260508090258 | 72 | 0.0 | 0.0 | 0.00 | 0.00 | 0.00 | 93 | 1012.3 | |
| 20260508085616 | 72 | 0.0 | 0.0 | 0.00 | 0.00 | 0.00 | 93 | 1012.1 | |
| 20260508085135 | 72 | 0.0 | 0.0 | 0.00 | 0.00 | 0.00 | 93 | 1012.1 | |
| 20260508084633 | 72 | 0.0 | 0.0 | 0.00 | 0.00 | 0.00 | 93 | 1012.2 | |
| 20260508084152 | 72 | 0.0 | 0.0 | 0.00 | 0.00 | 0.00 | 93 | 1012.3 | |
| 20260508083630 | 73 | 0.0 | 0.0 | 0.00 | 0.00 | 0.00 | 93 | 1012.1 | |
| 20260508083129 | 73 | 0.0 | 0.0 | 0.00 | 0.00 | 0.00 | 93 | 1012.0 | |
| 20260508082628 | 73 | 0.0 | 0.0 | 0.00 | 0.00 | 0.00 | 93 | 1012.2 | |
| 20260508082126 | 73 | 0.0 | 0.0 | 0.00 | 0.00 | 0.00 | 93 | 1012.1 | |
| 20260508081645 | 73 | 0.0 | 0.0 | 0.00 | 0.00 | 0.00 | 93 | 1012.0 | |
| 20260508081124 | 73 | 0.0 | 0.0 | 0.00 | 0.00 | 0.00 | 93 | 1012.1 | |
| 20260508080622 | 73 | 0.0 | 0.0 | 0.00 | 0.00 | 0.00 | 93 | 1012.1 | |
| 20260508080121 | 73 | 0.0 | 0.0 | 0.00 | 0.00 | 0.00 | 93 | 1012.1 | |
| 20260508075619 | 73 | 0.0 | 0.0 | 0.00 | 0.00 | 0.00 | 94 | 1012.4 | |
| 20260508075118 | 73 | 0.0 | 0.0 | 0.00 | 0.00 | 0.00 | 94 | 1012.4 | |
| 20260508074637 | 73 | 0.0 | 0.0 | 0.00 | 0.00 | 0.00 | 94 | 1012.1 | |
| 20260508074115 | 73 | 0.0 | 0.0 | 0.00 | 0.00 | 0.00 | 94 | 1012.1 | |
| 20260508073634 | 73 | 0.0 | 0.0 | 0.00 | 0.00 | 0.00 | 93 | 1012.1 | |
| 20260508073133 | 73 | 0.0 | 0.0 | 0.00 | 0.00 | 0.00 | 93 | 1012.4 | |
| 20260508072631 | 74 | 0.0 | 0.0 | 0.00 | 0.00 | 0.00 | 93 | 1012.4 | |
| 20260508072130 | 74 | 0.0 | 0.0 | 0.00 | 0.00 | 0.00 | 93 | 1012.3 | |
| 20260508071649 | 74 | 0.0 | 0.0 | 0.00 | 0.00 | 0.00 | 93 | 1012.4 | |
| 20260508071128 | 74 | 0.0 | 0.0 | 0.00 | 0.00 | 0.00 | 93 | 1012.3 | |
| 20260508070626 | 74 | 0.0 | 0.0 | 0.00 | 0.00 | 0.00 | 93 | 1012.4 | |
| 20260508070125 | 74 | 0.0 | 0.0 | 0.00 | 0.00 | 0.00 | 92 | 1012.5 | |
| 20260508065645 | 74 | 0.0 | 0.0 | 0.00 | 0.00 | 0.00 | 93 | 1012.5 | |
| 20260508065122 | 74 | 0.0 | 0.0 | 0.00 | 0.00 | 0.00 | 93 | 1012.4 | |
| 20260508064621 | 74 | 0.0 | 0.0 | 0.00 | 0.00 | 0.00 | 92 | 1012.4 | |
| 20260508064119 | 74 | 0.0 | 0.0 | 0.00 | 0.00 | 0.00 | 92 | 1012.6 | |
| 20260508063618 | 74 | 0.0 | 0.0 | 0.00 | 0.00 | 0.00 | 92 | 1012.6 | |
| 20260508063117 | 74 | 0.0 | 0.0 | 0.00 | 0.00 | 0.00 | 92 | 1012.6 | |
| 20260508062616 | 74 | 0.0 | 0.0 | 0.00 | 0.00 | 0.00 | 92 | 1012.7 | |
| 20260508062134 | 74 | 0.0 | 0.0 | 0.00 | 0.00 | 0.00 | 92 | 1012.8 | |
| 20260508061633 | 74 | 0.0 | 0.0 | 0.00 | 0.00 | 0.00 | 92 | 1012.8 | |
| 20260508061132 | 74 | 0.0 | 0.0 | 0.00 | 0.00 | 0.00 | 91 | 1012.7 | |
| 20260508060631 | 74 | 0.0 | 0.0 | 0.00 | 0.00 | 0.00 | 91 | 1012.7 | |
| 20260508060130 | 74 | 0.0 | 0.0 | 0.00 | 0.00 | 0.00 | 92 | 1012.8 | |
| 20260508055628 | 74 | 0.0 | 0.0 | 0.00 | 0.00 | 0.00 | 92 | 1012.9 | |
| 20260508055127 | 74 | 0.0 | 0.0 | 0.00 | 0.00 | 0.00 | 91 | 1013.0 | |
| 20260508054706 | 74 | 0.0 | 0.0 | 0.00 | 0.00 | 0.00 | 91 | 1013.1 | |
| 20260508054124 | 74 | 0.0 | 0.0 | 0.00 | 0.00 | 0.00 | 91 | 1013.2 | |
| 20260508053623 | 74 | 0.0 | 0.0 | 0.00 | 0.00 | 0.00 | 90 | 1013.2 | |
| 20260508053122 | 74 | 0.0 | 0.0 | 0.00 | 0.00 | 0.00 | 90 | 1013.1 | |
| 20260508052641 | 74 | 0.0 | 0.0 | 0.00 | 0.00 | 0.00 | 90 | 1013.0 | |
| 20260508052139 | 74 | 0.0 | 0.0 | 0.00 | 0.00 | 0.00 | 90 | 1013.0 | |
| 20260508051618 | 74 | 0.0 | 0.0 | 0.00 | 0.00 | 0.00 | 90 | 1013.2 | |
| 20260508051117 | 75 | 0.0 | 0.0 | 0.00 | 0.00 | 0.00 | 90 | 1013.2 | |
| 20260508050616 | 75 | 0.0 | 0.0 | 0.00 | 0.00 | 0.00 | 90 | 1013.1 | |
| 20260508050135 | 75 | 0.0 | 0.0 | 0.00 | 0.00 | 0.00 | 90 | 1013.2 | |
| 20260508045633 | 75 | 0.0 | 0.0 | 0.00 | 0.00 | 0.00 | 91 | 1013.2 | |
| 20260508045132 | 75 | 0.0 | 0.0 | 0.00 | 0.00 | 0.00 | 90 | 1013.2 | |
| 20260508044631 | 75 | 0.0 | 0.0 | 0.00 | 0.00 | 0.00 | 90 | 1013.1 | |
| 20260508044129 | 75 | 0.0 | 0.0 | 0.00 | 0.00 | 0.00 | 90 | 1013.2 | |
| 20260508043627 | 75 | 0.0 | 0.0 | 0.00 | 0.00 | 0.00 | 90 | 1013.2 | |
| 20260508043126 | 75 | 0.0 | 0.0 | 0.00 | 0.00 | 0.00 | 90 | 1013.2 | |
| 20260508042625 | 75 | 0.0 | 0.0 | 0.00 | 0.00 | 0.00 | 90 | 1013.3 | |
| 20260508042124 | 75 | 0.0 | 0.0 | 0.00 | 0.00 | 0.00 | 90 | 1013.2 | |
| 20260508041622 | 75 | 0.0 | 0.0 | 0.00 | 0.00 | 0.00 | 89 | 1013.4 | |
| 20260508041121 | 75 | 0.0 | 0.0 | 0.00 | 0.00 | 0.00 | 89 | 1013.4 | |
| 20260508040620 | 75 | 0.0 | 0.0 | 0.00 | 0.00 | 0.00 | 88 | 1013.5 | |
| 20260508040118 | 75 | 0.0 | 0.0 | 0.00 | 0.00 | 0.00 | 88 | 1013.4 | |
| 20260508035617 | 76 | 0.0 | 0.0 | 0.00 | 0.00 | 0.00 | 88 | 1013.4 | |
| 20260508035115 | 76 | 0.0 | 0.0 | 0.00 | 0.00 | 0.00 | 88 | 1013.5 | |
| 20260508034634 | 76 | 0.0 | 0.0 | 0.00 | 0.00 | 0.00 | 88 | 1013.6 | |
| 20260508034133 | 76 | 0.0 | 0.0 | 0.00 | 0.00 | 0.00 | 88 | 1013.6 | |
| 20260508033632 | 76 | 0.0 | 0.0 | 0.00 | 0.00 | 0.00 | 87 | 1013.5 | |
| 20260508033130 | 76 | 0.0 | 0.0 | 0.00 | 0.00 | 0.00 | 88 | 1013.7 | |
| 20260508032649 | 76 | 0.0 | 0.0 | 0.00 | 0.00 | 0.00 | 87 | 1013.6 | |
| 20260508032128 | 76 | 0.0 | 0.0 | 0.00 | 0.00 | 0.00 | 87 | 1013.3 | |
| 20260508031627 | 76 | 0.0 | 0.0 | 0.00 | 0.00 | 0.00 | 86 | 1013.5 | |
| 20260508031125 | 76 | 0.0 | 0.0 | 0.00 | 0.00 | 0.00 | 86 | 1013.5 | |
| 20260508030624 | 76 | 0.0 | 0.0 | 0.00 | 0.00 | 0.00 | 86 | 1013.4 | |
| 20260508030123 | 76 | 0.0 | 0.0 | 0.00 | 0.00 | 0.00 | 85 | 1013.4 | |
| 20260508025621 | 76 | 0.0 | 0.0 | 0.00 | 0.00 | 0.00 | 85 | 1013.2 | |
| 20260508025120 | 76 | 0.0 | 0.0 | 0.00 | 0.00 | 0.00 | 85 | 1013.4 | |
| 20260508024619 | 76 | 0.0 | 0.0 | 0.00 | 0.00 | 0.00 | 85 | 1013.3 | |
| 20260508024158 | 76 | 0.0 | 0.0 | 0.00 | 0.00 | 0.00 | 84 | 1013.4 | |
| 20260508023616 | 76 | 0.0 | 0.0 | 0.00 | 0.00 | 0.00 | 84 | 1013.5 | |
| 20260508023135 | 77 | 0.0 | 0.0 | 0.00 | 0.00 | 0.00 | 83 | 1013.3 | |
| 20260508022654 | 77 | 0.0 | 0.0 | 0.00 | 0.00 | 0.00 | 83 | 1013.2 | |
| 20260508022132 | 77 | 0.0 | 0.0 | 0.00 | 0.00 | 0.00 | 82 | 1013.1 | |
| 20260508021631 | 77 | 274 | 0.0 | 1.0 | 0.00 | 0.00 | 0.00 | 81 | 1013.3 |
| 20260508021130 | 77 | 0.0 | 0.0 | 0.00 | 0.00 | 0.00 | 81 | 1013.3 | |
| 20260508020628 | 77 | 0.0 | 0.0 | 0.00 | 0.00 | 0.00 | 81 | 1013.3 | |
| 20260508020127 | 77 | 0.0 | 0.0 | 0.00 | 0.00 | 0.00 | 81 | 1013.2 | |
| 20260508015625 | 78 | 0.0 | 0.0 | 0.00 | 0.00 | 0.00 | 79 | 1013.3 | |
| 20260508015144 | 78 | 0.0 | 0.0 | 0.00 | 0.00 | 0.00 | 80 | 1013.2 | |
| 20260508014622 | 78 | 0.0 | 0.0 | 0.00 | 0.00 | 0.00 | 79 | 1013.1 | |
| 20260508014121 | 78 | 0.0 | 0.0 | 0.00 | 0.00 | 0.00 | 79 | 1013.2 | |
| 20260508013620 | 78 | 0.0 | 0.0 | 0.00 | 0.00 | 0.00 | 78 | 1013.1 | |
| 20260508013118 | 78 | 0.0 | 0.0 | 0.00 | 0.00 | 0.00 | 77 | 1013.1 | |
| 20260508012637 | 78 | 0.0 | 0.0 | 0.00 | 0.00 | 0.00 | 76 | 1013.1 | |
| 20260508012115 | 78 | 0.0 | 0.0 | 0.00 | 0.00 | 0.00 | 75 | 1013.0 | |
| 20260508011634 | 78 | 0.0 | 0.0 | 0.00 | 0.00 | 0.00 | 75 | 1012.9 | |
| 20260508011133 | 79 | 232 | 0.0 | 2.0 | 0.00 | 0.00 | 0.00 | 74 | 1013.0 |
| 20260508010651 | 79 | 282 | 1.0 | 3.0 | 0.00 | 0.00 | 0.00 | 73 | 1013.1 |
| 20260508010130 | 79 | 0.0 | 0.0 | 0.00 | 0.00 | 0.00 | 72 | 1012.8 | |
| 20260508005629 | 79 | 0.0 | 0.0 | 0.00 | 0.00 | 0.00 | 72 | 1013.0 | |
| 20260508005128 | 79 | 0.0 | 0.0 | 0.00 | 0.00 | 0.00 | 71 | 1013.0 | |
| 20260508004626 | 79 | 0.0 | 0.0 | 0.00 | 0.00 | 0.00 | 71 | 1013.1 | |
| 20260508004125 | 80 | 0.0 | 0.0 | 0.00 | 0.00 | 0.00 | 70 | 1013.1 | |
| 20260508003624 | 80 | 0.0 | 0.0 | 0.00 | 0.00 | 0.00 | 70 | 1013.0 | |
| 20260508003123 | 80 | 257 | 1.0 | 3.0 | 0.00 | 0.00 | 0.00 | 69 | 1013.0 |
| 20260508002621 | 80 | 254 | 1.0 | 2.0 | 0.00 | 0.00 | 0.00 | 69 | 1013.0 |
| 20260508002120 | 81 | 0.0 | 0.0 | 0.00 | 0.00 | 0.00 | 67 | 1012.8 | |
| 20260508001619 | 81 | 245 | 2.0 | 6.0 | 0.00 | 0.00 | 0.00 | 66 | 1012.7 |
| 20260508001117 | 81 | 217 | 0.0 | 3.0 | 0.00 | 0.00 | 0.00 | 65 | 1012.8 |
| 20260508000616 | 82 | 243 | 2.0 | 6.0 | 0.00 | 0.00 | 0.00 | 64 | 1012.9 |
| 20260508000155 | 82 | 249 | 2.0 | 4.0 | 0.00 | 0.00 | 0.00 | 62 | 1012.8 |
| 20260507235633 | 83 | 262 | 2.0 | 3.0 | 0.00 | 0.00 | 0.00 | 60 | 1012.7 |
| 20260507235132 | 83 | 251 | 2.0 | 3.0 | 0.00 | 0.00 | 0.00 | 59 | 1012.8 |
| 20260507234631 | 83 | 254 | 4.0 | 6.0 | 0.00 | 0.00 | 0.00 | 58 | 1012.9 |
| 20260507234129 | 84 | 286 | 1.0 | 4.0 | 0.00 | 0.00 | 0.00 | 57 | 1012.9 |
| 20260507233628 | 85 | 241 | 1.0 | 3.0 | 0.00 | 0.00 | 0.00 | 55 | 1012.7 |
| 20260507233207 | 85 | 221 | 1.0 | 3.0 | 0.00 | 0.00 | 0.00 | 54 | 1012.9 |
| 20260507232625 | 86 | 261 | 2.0 | 6.0 | 0.00 | 0.00 | 0.00 | 53 | 1012.8 |
| 20260507232124 | 88 | 253 | 4.0 | 8.0 | 0.00 | 0.00 | 0.00 | 51 | 1012.7 |
| 20260507231623 | 89 | 251 | 4.0 | 6.0 | 0.00 | 0.00 | 0.00 | 51 | 1012.8 |
| 20260507231121 | 89 | 0.0 | 0.0 | 0.00 | 0.00 | 0.00 | 52 | 1012.6 | |
| 20260507230620 | 89 | 273 | 3.0 | 4.0 | 0.00 | 0.00 | 0.00 | 52 | 1012.6 |
| 20260507230118 | 89 | 0.0 | 0.0 | 0.00 | 0.00 | 0.00 | 50 | 1012.6 | |
| 20260507225617 | 89 | 260 | 5.0 | 8.0 | 0.00 | 0.00 | 0.00 | 49 | 1012.7 |
| 20260507225115 | 90 | 235 | 4.0 | 8.0 | 0.00 | 0.00 | 0.00 | 48 | 1012.5 |
| 20260507224634 | 90 | 249 | 4.0 | 6.0 | 0.00 | 0.00 | 0.00 | 47 | 1012.6 |
| 20260507224133 | 90 | 239 | 3.0 | 6.0 | 0.00 | 0.00 | 0.00 | 46 | 1012.6 |
| 20260507223632 | 90 | 294 | 1.0 | 3.0 | 0.00 | 0.00 | 0.00 | 47 | 1012.5 |
| 20260507223130 | 90 | 279 | 2.0 | 4.0 | 0.00 | 0.00 | 0.00 | 46 | 1012.5 |
| 20260507222629 | 90 | 310 | 4.0 | 6.0 | 0.00 | 0.00 | 0.00 | 45 | 1012.7 |
| 20260507222148 | 90 | 248 | 3.0 | 6.0 | 0.00 | 0.00 | 0.00 | 47 | 1012.6 |
| 20260507221626 | 89 | 262 | 3.0 | 7.0 | 0.00 | 0.00 | 0.00 | 46 | 1012.4 |
| 20260507221125 | 90 | 258 | 4.0 | 6.0 | 0.00 | 0.00 | 0.00 | 46 | 1012.4 |
| 20260507220624 | 89 | 255 | 1.0 | 4.0 | 0.00 | 0.00 | 0.00 | 47 | 1012.5 |
| 20260507220122 | 89 | 252 | 3.0 | 4.0 | 0.00 | 0.00 | 0.00 | 48 | 1012.5 |
| 20260507215622 | 89 | 270 | 6.0 | 8.0 | 0.00 | 0.00 | 0.00 | 47 | 1012.5 |
| 20260507215120 | 89 | 258 | 3.0 | 6.0 | 0.00 | 0.00 | 0.00 | 47 | 1012.4 |
| 20260507214619 | 89 | 254 | 4.0 | 7.0 | 0.00 | 0.00 | 0.00 | 46 | 1012.5 |
| 20260507214117 | 89 | 289 | 4.0 | 9.0 | 0.00 | 0.00 | 0.00 | 44 | 1012.5 |
| 20260507213616 | 90 | 327 | 2.0 | 7.0 | 0.00 | 0.00 | 0.00 | 43 | 1012.5 |
| 20260507213135 | 89 | 271 | 4.0 | 7.0 | 0.00 | 0.00 | 0.00 | 46 | 1012.5 |
| 20260507212634 | 89 | 250 | 4.0 | 8.0 | 0.00 | 0.00 | 0.00 | 44 | 1012.6 |
| 20260507212132 | 89 | 307 | 4.0 | 9.0 | 0.00 | 0.00 | 0.00 | 43 | 1012.8 |
| 20260507211631 | 89 | 328 | 3.0 | 7.0 | 0.00 | 0.00 | 0.00 | 43 | 1012.6 |
| 20260507211130 | 89 | 286 | 5.0 | 7.0 | 0.00 | 0.00 | 0.00 | 42 | 1012.8 |
| 20260507210628 | 89 | 258 | 4.0 | 7.0 | 0.00 | 0.00 | 0.00 | 42 | 1012.7 |
| 20260507210127 | 89 | 273 | 3.0 | 8.0 | 0.00 | 0.00 | 0.00 | 42 | 1012.9 |
| 20260507205626 | 89 | 340 | 5.0 | 8.0 | 0.00 | 0.00 | 0.00 | 44 | 1012.9 |
| 20260507205124 | 89 | 267 | 2.0 | 7.0 | 0.00 | 0.00 | 0.00 | 44 | 1012.9 |
| 20260507204623 | 88 | 241 | 5.0 | 9.0 | 0.00 | 0.00 | 0.00 | 45 | 1012.9 |
| 20260507204122 | 89 | 267 | 2.0 | 4.0 | 0.00 | 0.00 | 0.00 | 44 | 1012.9 |
| 20260507203621 | 89 | 268 | 4.0 | 7.0 | 0.00 | 0.00 | 0.00 | 45 | 1013.0 |
| 20260507203119 | 89 | 261 | 2.0 | 7.0 | 0.00 | 0.00 | 0.00 | 45 | 1012.8 |
| 20260507202618 | 89 | 288 | 5.0 | 8.0 | 0.00 | 0.00 | 0.00 | 42 | 1012.8 |
| 20260507202117 | 89 | 256 | 3.0 | 6.0 | 0.00 | 0.00 | 0.00 | 45 | 1012.9 |
| 20260507201615 | 89 | 257 | 5.0 | 8.0 | 0.00 | 0.00 | 0.00 | 41 | 1012.9 |
| 20260507201134 | 89 | 328 | 3.0 | 6.0 | 0.00 | 0.00 | 0.00 | 39 | 1012.9 |
| 20260507200632 | 89 | 256 | 5.0 | 9.0 | 0.00 | 0.00 | 0.00 | 45 | 1012.8 |
| 20260507200131 | 89 | 270 | 5.0 | 9.0 | 0.00 | 0.00 | 0.00 | 48 | 1012.9 |
| 20260507195630 | 88 | 224 | 5.0 | 10.0 | 0.00 | 0.00 | 0.00 | 48 | 1012.9 |
| 20260507195128 | 88 | 240 | 3.0 | 8.0 | 0.00 | 0.00 | 0.00 | 47 | 1012.9 |
| 20260507194627 | 88 | 243 | 4.0 | 6.0 | 0.00 | 0.00 | 0.00 | 44 | 1013.0 |
| 20260507194125 | 88 | 245 | 4.0 | 6.0 | 0.00 | 0.00 | 0.00 | 43 | 1013.1 |
| 20260507193624 | 88 | 265 | 5.0 | 8.0 | 0.00 | 0.00 | 0.00 | 45 | 1013.2 |
| 20260507193123 | 88 | 243 | 4.0 | 9.0 | 0.00 | 0.00 | 0.00 | 47 | 1013.2 |
| 20260507192622 | 88 | 252 | 4.0 | 13.0 | 0.00 | 0.00 | 0.00 | 51 | 1013.1 |
| 20260507192120 | 88 | 227 | 3.0 | 11.0 | 0.00 | 0.00 | 0.00 | 55 | 1013.2 |
| 20260507191619 | 88 | 234 | 4.0 | 6.0 | 0.00 | 0.00 | 0.00 | 50 | 1013.2 |
| 20260507191138 | 88 | 240 | 6.0 | 9.0 | 0.00 | 0.00 | 0.00 | 49 | 1013.1 |
| 20260507190616 | 88 | 272 | 3.0 | 6.0 | 0.00 | 0.00 | 0.00 | 51 | 1013.4 |
| 20260507190135 | 89 | 242 | 5.0 | 8.0 | 0.00 | 0.00 | 0.00 | 50 | 1013.5 |
| 20260507185634 | 88 | 217 | 1.0 | 3.0 | 0.00 | 0.00 | 0.00 | 52 | 1013.7 |
| 20260507185132 | 88 | 212 | 6.0 | 13.0 | 0.00 | 0.00 | 0.00 | 50 | 1013.6 |
| 20260507184631 | 88 | 238 | 4.0 | 7.0 | 0.00 | 0.00 | 0.00 | 49 | 1013.8 |
| 20260507184150 | 88 | 226 | 3.0 | 6.0 | 0.00 | 0.00 | 0.00 | 49 | 1013.9 |
| 20260507183649 | 88 | 235 | 6.0 | 10.0 | 0.00 | 0.00 | 0.00 | 49 | 1014.1 |
| 20260507183127 | 89 | 227 | 5.0 | 9.0 | 0.00 | 0.00 | 0.00 | 50 | 1014.0 |
| 20260507182626 | 89 | 181 | 3.0 | 6.0 | 0.00 | 0.00 | 0.00 | 55 | 1014.0 |
| 20260507182125 | 88 | 240 | 6.0 | 11.0 | 0.00 | 0.00 | 0.00 | 52 | 1014.0 |
| 20260507181623 | 88 | 206 | 7.0 | 11.0 | 0.00 | 0.00 | 0.00 | 52 | 1014.2 |
| 20260507181142 | 88 | 256 | 4.0 | 8.0 | 0.00 | 0.00 | 0.00 | 52 | 1014.4 |
| 20260507180621 | 88 | 236 | 6.0 | 11.0 | 0.00 | 0.00 | 0.00 | 51 | 1014.3 |
| 20260507180119 | 88 | 233 | 5.0 | 8.0 | 0.00 | 0.00 | 0.00 | 52 | 1014.4 |
| 20260507175618 | 88 | 255 | 5.0 | 8.0 | 0.00 | 0.00 | 0.00 | 52 | 1014.5 |
| 20260507175117 | 87 | 238 | 6.0 | 8.0 | 0.00 | 0.00 | 0.00 | 50 | 1014.5 |
| 20260507174615 | 87 | 237 | 6.0 | 10.0 | 0.00 | 0.00 | 0.00 | 53 | 1014.5 |
| 20260507174134 | 88 | 236 | 4.0 | 7.0 | 0.00 | 0.00 | 0.00 | 52 | 1014.5 |
| 20260507173633 | 88 | 242 | 8.0 | 10.0 | 0.00 | 0.00 | 0.00 | 55 | 1014.7 |
| 20260507173132 | 88 | 253 | 3.0 | 4.0 | 0.00 | 0.00 | 0.00 | 55 | 1014.7 |
| 20260507172630 | 87 | 244 | 5.0 | 10.0 | 0.00 | 0.00 | 0.00 | 56 | 1014.7 |
| 20260507172128 | 87 | 289 | 5.0 | 10.0 | 0.00 | 0.00 | 0.00 | 56 | 1014.7 |
| 20260507171627 | 87 | 217 | 4.0 | 6.0 | 0.00 | 0.00 | 0.00 | 57 | 1014.7 |
| 20260507171126 | 87 | 238 | 6.0 | 8.0 | 0.00 | 0.00 | 0.00 | 57 | 1014.7 |
| 20260507170625 | 87 | 232 | 5.0 | 10.0 | 0.00 | 0.00 | 0.00 | 60 | 1014.6 |
| 20260507170123 | 87 | 274 | 1.0 | 7.0 | 0.00 | 0.00 | 0.00 | 61 | 1014.8 |
| 20260507165642 | 87 | 212 | 4.0 | 8.0 | 0.00 | 0.00 | 0.00 | 60 | 1014.8 |
| 20260507165121 | 87 | 208 | 5.0 | 9.0 | 0.00 | 0.00 | 0.00 | 60 | 1014.7 |
| 20260507164640 | 86 | 249 | 0.0 | 2.0 | 0.00 | 0.00 | 0.00 | 59 | 1014.8 |